CZ-3B DEB, 40180

Orbit data source: Space-Track

CZ-3B DEB, 40180 is space debris in HEO originally from a launch on Mon, 19 Dec 2011 UTC launched from the Xichang Space Center, China (XSC). Debris objects in space refer to the collection of defunct objects orbiting the Earth. Examples of debris include non-operational satellites, rocket bodies, and fragments generated from explosions, collisions, or faulty payload assembly.

Not visible in the next 10 days
Identifier
40180, 2011-077D
Orbit
HEO
Country
Flag of CNCN / PRC
Related business
Manufacturer
CALT
Mission
Spacecraft
Bus & Motor
Unknown
Mass
Unknown
Launch date (UTC)
2011-12-19 (15 years ago)
Launch vehicle
Unknown
Launch site
Xichang Space Center, China (XSC)
Object type
Payload
Rocket body
Debris
Shape & HBR
Unknown shape, 0.2 m
Radar Cross Section
Medium (>0.1 m² and <1 m²)

Expand to show TLE details & history
Last TLE update: 19 hours ago

TLE from 19 hours ago
0 CZ-3B DEB
1 40180U 11077D   26262.96694257  .00003434  00000-0  57731-2 0  9994
2 40180  23.1918 139.7184 7442465 121.0059 331.3807  2.03284090 91038
Epoch: 2026-09-19T23:12Z
TLE epoch observation values (Epoch: 2026-09-19T23:12:23.838Z)
Latitude
0.00001°
Longitude
152.8007°
Altitude
12,670.943 km
Speed
5.168 km/s
True Right ascension
09h 19m 04s
True Declination
0° 00' 00"
Sunlit
Object was in daylight at epoch
Visualization orbit readout
Latitude
Unknown
Longitude
Unknown
Altitude
Unknown
Speed
Unknown
Apparent Right ascension
Unknown
Apparent Declination
Unknown
Sunlit
N/A
Visualization observer readout
Local Sidereal Time
10:57:17
Azimuth
Unknown
Elevation
Unknown
Doppler factor
Unknown
Orbital elements
Apogee altitude
39,542.948 km
Perigee altitude
355.13 km
Semi-major axis
26,327.176 km
Eccentricity
0.74425
Inclination
23.1918°
RAAN
139.7184°
Arg. of periapsis
121.0059°
True anomaly
238.96705°
Mean anomaly
331.3807°
Eccentric anomaly
291.78347°
Mean motion
0.50809 °/min
Orbital period
708.54 mins
BSTAR
0.0057731
Loading maneuver chart data...
Computing Atmospheric mass density...
Loading historical data...
Loading historical data...
Loading historical data...
Loading historical data...
Loading historical data...
Loading historical data...
Loading historical data...

Documentation

Showing up to 5 results
|